Location: Central Falls
(41.8900°N, 71.3929°W)
Time: 12:54:14
(UTC+00:00)

A-11 Canister half - Pass Details

Date: 15 December 2023
Orbit: 1512 x 1687 km, 47.2° (Epoch: 20 February)

Event Time Altitude Azimuth Distance (km) Brightness Sun altitude
Rises 04:01:04 0° 262° (W) 4,691 - -69.6°
Reaches altitude 10° 04:04:07 10° 265° (W) 3,727 - -69.9°
Maximum altitude 04:13:33 69° 348° (NNW) 1,684 - -70.5°
Drops below altitude 10° 04:23:24 10° 72° (ENE) 3,870 - -71.0°
Sets 04:26:37 0° 75° (ENE) 4,879 - -71.1°
